This is the latest recevied weather packets stored in our database for station/object KN4MGS. If no packets are shown the sender has not sent any weather packets the latest 10 day(s).
| Time | Temp. | Humidity | Pressure | Rain* | Wind** | Luminosity | Snow |
|---|---|---|---|---|---|---|---|
| 1777849056 | 21.67° C | 37% | 1019.3 hPa | 0 mm | - | 113 W/m² | - |
| 1777848756 | 21.67° C | 36% | 1019.1 hPa | 0 mm | - | 136 W/m² | - |
| 1777848453 | 22.22° C | 36% | 1019.2 hPa | 0 mm | - | 126 W/m² | - |
| 1777848150 | 22.22° C | 35% | 1019.1 hPa | 0 mm | - | 151 W/m² | - |
| 1777847848 | 22.78° C | 34% | 1019.3 hPa | 0 mm | - | 165 W/m² | - |
| 1777847545 | 21.67° C | 38% | 1019.2 hPa | 0 mm | - | 181 W/m² | - |
| 1777847241 | 21.67° C | 37% | 1019.2 hPa | 0 mm | - | 192 W/m² | - |
| 1777846940 | 22.22° C | 36% | 1019.4 hPa | 0 mm | - | 240 W/m² | - |
| 1777846638 | 21.67° C | 36% | 1019.3 hPa | 0 mm | - | 239 W/m² | - |
| 1777846335 | 22.22° C | 35% | 1019.3 hPa | 0 mm | - | 257 W/m² | - |
| 1777846031 | 22.22° C | 36% | 1019.6 hPa | 0 mm | - | 281 W/m² | - |
| 1777845728 | 22.22° C | 35% | 1019.4 hPa | 0 mm | - | 282 W/m² | - |
| 1777845425 | 21.67° C | 35% | 1019.6 hPa | 0 mm | - | 327 W/m² | - |
| 1777845122 | 21.67° C | 35% | 1019.3 hPa | 0 mm | - | 333 W/m² | - |
| 1777844820 | 21.67° C | 34% | 1019.6 hPa | 0 mm | - | 345 W/m² | - |
| 1777844516 | 21.67° C | 36% | 1019.9 hPa | 0 mm | - | 363 W/m² | - |
| 1777844215 | 21.67° C | 36% | 1019.7 hPa | 0 mm | - | 398 W/m² | - |
| 1777843912 | 21.67° C | 36% | 1019.6 hPa | 0 mm | - | 379 W/m² | - |
| 1777843609 | 21.67° C | 38% | 1020 hPa | 0 mm | - | 414 W/m² | - |
| 1777843306 | 21.11° C | 38% | 1019.7 hPa | 0 mm | - | 393 W/m² | - |
| 1777843004 | 21.67° C | 35% | 1019.7 hPa | 0 mm | - | 424 W/m² | - |
| 1777842699 | 21.67° C | 36% | 1020.1 hPa | 0 mm | - | 416 W/m² | - |
| 1777842396 | 21.67° C | 38% | 1020.2 hPa | 0 mm | - | 444 W/m² | - |
| 1777842093 | 21.67° C | 35% | 1020.2 hPa | 0 mm | - | 467 W/m² | - |
| 1777841788 | 22.78° C | 35% | 1019.9 hPa | 0 mm | - | 460 W/m² | - |
* Rain latest hour (hover to see other rain measurements)
** Current wind speed in m/s (hover to see current wind gust speed)